COSMOS 2251 DEB, 40218

Orbit data source: Space-Track

COSMOS 2251 DEB, 40218 is space debris in LEO originally from a launch on Wed, 16 Jun 1993 UTC launched from the Plesetsk Missile And Space Complex (PKMTR). The debris from Iridium 33, an American commercial communications satellite, has been tracked extensively since its accidental collision with the defunct Russian satellite Cosmos 2251 in 2009. This event, occurring at high speed in low Earth orbit (LEO), generated thousands of pieces of space debris, significantly increasing the risk of further collisions. The Iridium 33 debris cloud has impacted space traffic management and orbital debris mitigation strategies, making it a subject of ongoing study in space situational awareness.

Loading next visibility...
Identifier
40218, 1993-036BUX
Orbit
LEO
Country
Flag of CISCIS
Related business
Manufacturer
Unknown
Mission
Spacecraft
Bus & Motor
Unknown
Mass
Unknown
Launch date (UTC)
1993-06-16 (32 years ago)
Launch vehicle
Unknown
Launch site
Plesetsk Missile And Space Complex (PKMTR)
Object type
Payload
Rocket body
Debris
Shape & HBR
Unknown shape, 0.1 m
Radar Cross Section
Small (<0.1 m²)

Expand to show TLE details & history
Last TLE update: 3 days ago

TLE from 3 days ago
0 COSMOS 2251 DEB
1 40218U 93036BUX 25336.09777931  .00001508  00000-0  47134-3 0  9994
2 40218  74.0309 268.5457 0016362 353.7950   6.3000 14.41546301587083
Epoch: 2025-12-02T02:20Z
TLE epoch observation values (Epoch: 2025-12-02T02:20:48.132Z)
Latitude
-0.00005°
Longitude
162.15732°
Altitude
744.412 km
Speed
7.489 km/s
True Right ascension
17h 54m 10s
True Declination
0° 00' 00"
Sunlit
Object was in daylight at epoch
Visualization orbit readout
Latitude
Unknown
Longitude
Unknown
Altitude
Unknown
Speed
Unknown
Apparent Right ascension
Unknown
Apparent Declination
Unknown
Sunlit
N/A
Visualization observer readout
Local Sidereal Time
06:44:13
Azimuth
Unknown
Elevation
Unknown
Doppler factor
Unknown
Orbital elements
Apogee altitude
762.677 km
Perigee altitude
739.348 km
Semi-major axis
7,129.149 km
Eccentricity
0.00164
Inclination
74.0309°
RAAN
268.5457°
Arg. of periapsis
353.795°
True anomaly
6.32062°
Mean anomaly
6.3°
Eccentric anomaly
6.3103°
Mean motion
3.60568 °/min
Orbital period
99.84 mins
BSTAR
0.00047134

Documentation

Showing up to 5 results
|